Location: Castillon
(43.0896°N, 0.2156°E)
Time: 02:49:45
(UTC+00:00)

Cosmos 1725 Rocket - Pass Details

Date: 16 June 2021
Orbit: 962 x 990 km, 82.9° (Epoch: 04 August)

Event Time Altitude Azimuth Distance (km) Brightness Sun altitude
Rises 22:15:33 0° 350° (N) 3,658 8.4 -19.3°
Reaches altitude 10° 22:18:04 10° 349° (NNW) 2,707 7.5 -19.5°
Maximum altitude 22:24:14 74° 266° (W) 1,005 4.1 -20.0°
Enters shadow 22:27:20 31° 187° (S) 1,621 4.7 -20.2°
